Location: Saluda
(35.2377°N, 82.3468°W)
Time: 04:53:04
(UTC+00:00)

Vanguard 2 - Pass Details

Date: 07 October 2022
Orbit: 553 x 2933 km, 32.9° (Epoch: 26 November)

Event Time Altitude Azimuth Distance (km) Brightness Sun altitude
Rises 22:15:25 0° 282° (WNW) 5,664 13.3 9.1°
Reaches altitude 10° 22:18:50 10° 278° (W) 4,921 13.2 8.4°
Maximum altitude 22:33:25 54° 207° (SSW) 3,260 11.1 5.5°
Drops below altitude 10° 22:50:25 10° 136° (SE) 5,631 11.6 2.1°
Sets 22:54:41 0° 132° (SE) 6,498 11.9 1.2°
